Location: Fort Frances
(48.6170°N, 93.4170°W)
Time: 11:19:50
(UTC-05:00)

ISS - All Passes

Search period start: 31 October 2014 00:00
Search period end: 09 November 2014 23:00
Orbit: 412 x 417 km, 51.6° (Epoch: 31 October)

Date Brightness Start Highest point End Pass type
(mag) Time Alt. Az. Time Alt. Az. Time Alt. Az.
31 Oct - 11:15:30 10° SW 11:18:36 37° SSE 11:21:43 10° ENE daylight
31 Oct - 12:51:54 10° W 12:55:12 62° NNW 12:58:32 10° ENE daylight
31 Oct - 14:28:55 10° WNW 14:32:11 50° N 14:35:27 10° E daylight
31 Oct - 16:05:40 10° WNW 16:09:00 69° SSW 16:12:20 10° ESE daylight
31 Oct - 17:43:18 10° W 17:45:13 15° SW 17:47:09 10° S daylight
01 Nov - 10:26:47 10° SSW 10:29:33 25° SE 10:32:20 10° E daylight
01 Nov - 12:02:39 10° WSW 12:05:59 80° NNW 12:09:20 10° ENE daylight
01 Nov - 13:39:40 10° WNW 13:42:55 47° N 13:46:10 10° ENE daylight
01 Nov - 15:16:28 10° WNW 15:19:50 85° NNE 15:23:10 10° ESE daylight
01 Nov - 16:53:33 10° W 16:56:14 22° SW 16:58:54 10° SSE daylight
02 Nov - 08:38:23 10° S 08:40:31 16° SE 08:42:39 10° E daylight
02 Nov - 10:13:27 10° WSW 10:16:46 75° SSE 10:20:06 10° ENE daylight
02 Nov - 11:50:21 10° W 11:53:36 49° N 11:56:52 10° ENE daylight
02 Nov - 13:27:15 10° WNW 13:30:34 66° NNE 13:33:54 10° E daylight
02 Nov - 15:04:05 10° W 15:07:08 34° SW 15:10:12 10° SSE daylight
03 Nov - 09:24:19 10° SW 09:27:33 51° SSE 09:30:48 10° ENE daylight
03 Nov - 11:00:59 10° W 11:04:15 54° N 11:07:33 10° ENE daylight
03 Nov - 12:37:57 10° WNW 12:41:15 54° N 12:44:32 10° E daylight
03 Nov - 14:14:42 10° WNW 14:17:58 52° SSW 14:21:13 10° SE daylight
03 Nov - 15:53:40 10° SW 15:54:01 10° SW 15:54:22 10° SW daylight
04 Nov - 08:35:19 10° SSW 08:38:20 33° SE 08:41:23 10° E daylight
04 Nov - 10:11:35 10° W 10:14:54 66° NNW 10:18:13 10° ENE daylight
04 Nov - 11:48:36 10° WNW 11:51:51 49° N 11:55:07 10° E daylight
04 Nov - 13:25:21 10° WNW 13:28:42 76° SSW 13:32:01 10° ESE daylight
04 Nov - 15:02:47 10° W 15:04:57 16° SW 15:07:07 10° S daylight
05 Nov - 07:46:31 10° SSW 07:49:09 22° SE 07:51:47 10° E daylight
05 Nov - 09:22:12 10° WSW 09:25:31 86° NNW 09:28:52 10° ENE daylight
05 Nov - 10:59:11 10° WNW 11:02:25 47° N 11:05:40 10° ENE daylight
05 Nov - 12:36:00 10° WNW 12:39:21 79° NNE 12:42:41 10° ESE daylight
05 Nov - 14:12:59 10° W 14:15:47 25° SW 14:18:34 10° SSE daylight
06 Nov - 06:58:07 10° S 06:59:58 14° SE 07:01:49 10° ESE daylight
06 Nov - 08:32:51 10° WSW 08:36:09 68° SSE 08:39:28 10° ENE daylight
06 Nov - 10:09:42 10° W 10:12:57 50° N 10:16:13 10° ENE daylight
06 Nov - 11:46:36 10° WNW 11:49:55 62° NNE 11:53:14 10° E daylight
06 Nov - 13:23:23 10° WNW 13:26:31 38° SSW 13:29:38 10° SE daylight
07 Nov - 07:43:36 10° SW 07:46:47 45° SSE 07:49:59 10° ENE daylight
07 Nov - 09:20:10 10° W 09:23:27 57° NNW 09:26:45 10° ENE daylight
07 Nov - 10:57:09 10° WNW 11:00:25 52° N 11:03:42 10° E daylight
07 Nov - 12:33:53 10° WNW 12:37:10 58° SSW 12:40:26 10° SE daylight
07 Nov - 14:12:02 10° WSW 14:13:16 12° SW 14:14:30 10° SSW daylight
08 Nov - 06:54:30 10° SSW 06:57:26 30° SE 07:00:23 10° E daylight
08 Nov - 08:30:37 10° WSW 08:33:56 71° NNW 08:37:16 10° ENE daylight
08 Nov - 10:07:38 10° WNW 10:10:52 48° N 10:14:07 10° E daylight
08 Nov - 11:44:23 10° WNW 11:47:43 84° SSW 11:51:03 10° ESE daylight
08 Nov - 13:21:38 10° W 13:24:01 18° SW 13:26:24 10° S daylight
09 Nov - 06:05:38 10° S 06:08:06 19° SE 06:10:34 10° E visible
09 Nov - 07:41:05 10° WSW 07:44:25 87° SSE 07:47:45 10° ENE daylight
09 Nov - 09:18:02 10° WNW 09:21:16 48° N 09:24:31 10° ENE daylight
09 Nov - 10:54:52 10° WNW 10:58:12 73° NNE 11:01:32 10° ESE daylight
09 Nov - 12:31:46 10° W 12:34:40 28° SW 12:37:34 10° SSE daylight
